sat.trackr.live / text

‹ back to catalog

UNKNOWN

NORAD 87271

UNKNOWN UNKNOWN UNKNOWN

§ Identity

Operator
Country
Launch date
Launch site
Launch vehicle
Mass (kg)
RCS (m²)

External: N2YO · Heavens-Above

§ Orbital elements

Epoch: 2026-09-18T06:34:02.089056Z

Period
101.03 min
Inclination
65.7526°
Eccentricity
0.0426122
Mean motion
14.25316021 rev/d
Perigee alt
501.2 km
Apogee alt
1,113.6 km
Semi-major
7,185.6 km
B*
7.4600e-4
RAAN
202.2668°
Arg perigee
288.4919°
Mean anomaly
67.0315°
Rev number
65,216

§ Raw data

UNKNOWN1 87271U          26261.27363529  .00004495  00000+0  74600-3 0  99902 87271  65.7526 202.2668 0426122 288.4919  67.0315 14.25316021652169

JSON: /api/v1/satellites/87271 · /tle

For live sub-satellite position, see the globe view (requires WebGL).

§ Visibility from observer

Set your observer location to see the next 7 days of passes ≥ 10°. The values pass through the URL so the page stays shareable.

No JS? Fill the form by hand. The geolocation button needs JavaScript.